TimeCST,TemperatureF,Dew PointF,Humidity,Sea Level PressureIn,VisibilityMPH,Wind Direction,Wind SpeedMPH,Gust SpeedMPH,PrecipitationIn,Events,Conditions,WindDirDegrees,DateUTC
12:50 AM,39.2,37.4,93,30.10,10.0,North,6.9,-,N/A,,Overcast,350,2013-01-02 06:50:00
12:53 AM,39.9,37.0,89,30.10,10.0,North,8.1,-,N/A,,Overcast,350,2013-01-02 06:53:00
1:17 AM,39.2,37.4,93,30.09,10.0,North,10.4,-,N/A,,Overcast,350,2013-01-02 07:17:00
1:24 AM,39.2,37.4,93,30.10,10.0,North,10.4,-,N/A,,Overcast,350,2013-01-02 07:24:00
1:53 AM,39.0,37.0,93,30.11,9.0,North,11.5,-,N/A,,Overcast,350,2013-01-02 07:53:00
2:15 AM,39.2,35.6,87,30.11,9.0,North,8.1,-,N/A,,Overcast,360,2013-01-02 08:15:00
2:53 AM,37.9,36.0,93,30.12,8.0,North,10.4,-,N/A,,Overcast,350,2013-01-02 08:53:00
3:14 AM,37.4,35.6,93,30.12,10.0,North,10.4,-,N/A,,Overcast,10,2013-01-02 09:14:00
3:53 AM,37.0,35.1,93,30.13,8.0,North,9.2,-,N/A,,Overcast,10,2013-01-02 09:53:00
4:53 AM,37.0,34.0,89,30.14,10.0,North,6.9,-,N/A,,Overcast,360,2013-01-02 10:53:00
5:53 AM,37.0,33.1,86,30.16,10.0,North,10.4,-,N/A,,Overcast,360,2013-01-02 11:53:00
6:53 AM,37.0,34.0,89,30.17,7.0,NNE,9.2,-,N/A,,Overcast,20,2013-01-02 12:53:00
7:23 AM,35.6,33.8,93,30.15,6.0,NNE,9.2,-,N/A,,Overcast,20,2013-01-02 13:23:00
7:53 AM,36.0,34.0,93,30.18,5.0,North,6.9,-,N/A,,Overcast,350,2013-01-02 13:53:00
8:53 AM,36.0,32.0,86,30.21,5.0,North,11.5,-,N/A,,Overcast,10,2013-01-02 14:53:00
9:53 AM,36.0,32.0,86,30.21,5.0,North,9.2,-,N/A,,Overcast,10,2013-01-02 15:53:00
10:53 AM,36.0,32.0,86,30.21,5.0,North,9.2,-,N/A,,Overcast,360,2013-01-02 16:53:00
11:53 AM,36.0,32.0,86,30.18,5.0,North,8.1,-,N/A,,Overcast,360,2013-01-02 17:53:00
12:53 PM,37.0,32.0,82,30.17,6.0,NNE,5.8,-,N/A,,Haze,30,2013-01-02 18:53:00
1:53 PM,36.0,32.0,86,30.16,6.0,North,8.1,-,N/A,,Overcast,10,2013-01-02 19:53:00
2:53 PM,36.0,32.0,86,30.18,6.0,NNE,5.8,-,N/A,,Overcast,20,2013-01-02 20:53:00
3:53 PM,36.0,32.0,86,30.18,6.0,North,6.9,-,N/A,,Overcast,360,2013-01-02 21:53:00
4:53 PM,35.1,30.9,85,30.18,6.0,North,8.1,-,N/A,,Overcast,10,2013-01-02 22:53:00
5:53 PM,35.1,30.9,85,30.21,6.0,North,3.5,-,N/A,,Overcast,350,2013-01-02 23:53:00
6:53 PM,35.1,30.9,85,30.23,6.0,NW,4.6,-,N/A,,Overcast,320,2013-01-03 00:53:00
7:53 PM,35.1,32.0,89,30.22,5.0,North,4.6,-,N/A,,Overcast,350,2013-01-03 01:53:00
8:53 PM,35.1,32.0,89,30.22,5.0,North,6.9,-,N/A,,Overcast,350,2013-01-03 02:53:00
10:53 PM,34.0,30.9,89,30.23,6.0,North,5.8,-,N/A,,Overcast,360,2013-01-03 04:53:00
11:26 PM,33.8,30.2,87,30.22,6.0,NNW,6.9,-,N/A,,Overcast,340,2013-01-03 05:26:00
11:53 PM,34.0,30.9,89,30.23,6.0,NNW,6.9,-,N/A,,Overcast,340,2013-01-03 05:53:00